TimeEST,TemperatureF,Dew PointF,Humidity,Sea Level PressureIn,VisibilityMPH,Wind Direction,Wind SpeedMPH,Gust SpeedMPH,PrecipitationIn,Events,Conditions,WindDirDegrees,DateUTC
12:53 AM,-9999,-9999,N/A,30.03,10.0,NNE,9.2,-,N/A,,Partly Cloudy,20,2012-11-17 05:53:00
1:53 AM,-9999,-9999,N/A,30.02,10.0,NNE,8.1,-,N/A,,Clear,30,2012-11-17 06:53:00
2:53 AM,-9999,-9999,N/A,30.01,10.0,NNE,6.9,-,N/A,,Clear,20,2012-11-17 07:53:00
3:53 AM,-9999,-9999,N/A,30.01,10.0,NNE,6.9,-,N/A,,Clear,20,2012-11-17 08:53:00
4:53 AM,-9999,-9999,N/A,30.01,10.0,NNE,10.4,-,N/A,,Clear,30,2012-11-17 09:53:00
5:53 AM,-9999,-9999,N/A,30.03,10.0,North,11.5,-,N/A,,Clear,10,2012-11-17 10:53:00
5:59 AM,69.8,66.2,88,30.03,10.0,NNE,9.2,-,N/A,,Scattered Clouds,20,2012-11-17 10:59:00
6:53 AM,69.8,66.9,91,30.04,10.0,NNE,10.4,-,N/A,,Scattered Clouds,20,2012-11-17 11:53:00
7:53 AM,69.8,66.9,91,30.05,10.0,NNE,10.4,-,N/A,,Scattered Clouds,30,2012-11-17 12:53:00
8:53 AM,71.6,66.9,85,30.07,10.0,NNE,8.1,-,N/A,,Scattered Clouds,30,2012-11-17 13:53:00
9:53 AM,71.6,68.0,88,30.08,10.0,NNE,12.7,-,N/A,,Scattered Clouds,20,2012-11-17 14:53:00
10:53 AM,73.4,66.0,78,30.08,10.0,NE,11.5,-,N/A,,Scattered Clouds,50,2012-11-17 15:53:00
11:53 AM,73.4,66.0,78,30.06,10.0,NNE,13.8,-,N/A,,Scattered Clouds,30,2012-11-17 16:53:00
12:53 PM,75.2,66.9,75,30.04,10.0,NNE,10.4,-,N/A,,Scattered Clouds,30,2012-11-17 17:53:00
1:53 PM,75.2,66.9,75,30.02,10.0,NNE,11.5,-,N/A,,Scattered Clouds,30,2012-11-17 18:53:00
2:53 PM,73.4,66.9,80,30.01,10.0,NNE,8.1,-,N/A,,Scattered Clouds,30,2012-11-17 19:53:00
3:53 PM,73.4,68.0,83,30.01,10.0,NE,9.2,-,N/A,,Mostly Cloudy,40,2012-11-17 20:53:00
4:53 PM,75.2,64.9,70,30.01,10.0,ENE,8.1,-,N/A,,Mostly Cloudy,60,2012-11-17 21:53:00
5:53 PM,73.4,66.0,78,30.02,10.0,East,8.1,-,N/A,,Mostly Cloudy,80,2012-11-17 22:53:00
6:53 PM,71.6,66.0,82,30.03,10.0,ENE,3.5,-,N/A,,Mostly Cloudy,70,2012-11-17 23:53:00
7:53 PM,71.6,66.0,82,30.04,10.0,NE,5.8,-,N/A,,Scattered Clouds,40,2012-11-18 00:53:00
8:53 PM,71.6,66.9,85,30.04,10.0,NNE,6.9,-,N/A,,Scattered Clouds,30,2012-11-18 01:53:00
9:53 PM,71.6,69.1,92,30.06,10.0,NNE,9.2,-,N/A,,Mostly Cloudy,20,2012-11-18 02:53:00
10:53 PM,-9999,-9999,N/A,30.05,10.0,NNE,10.4,-,N/A,,Clear,30,2012-11-18 03:53:00
11:53 PM,-9999,-9999,N/A,30.05,10.0,NNE,5.8,-,N/A,,Clear,30,2012-11-18 04:53:00